Terminal Aerodrome Forecast
Issued by NWS

Home | Current Version | Previous Version | Text Only | Print | Product List | Glossary On
Versions: 1 2 3 4 5 6 7 8 9 10 11 12 13 14 15 16 17 18 19
000
FTAK31 PAJN 232327
TAFAWG
TAF
PAWG 232327Z 2400/2424 10007KT P6SM SCT035 BKN045
     FM241500 10010KT 4SM -SNRA BR OVC030
     FM241800 09010KT P6SM -RA OVC025
      AMD LTD TO CLD VIS AND WIND 2406/2415=

USA.gov is the U.S. government's official web portal to all federal, state and local government web resources and services.